User: anonymous   Login
Location: Shades State Park
(39.9310°N, 87.0690°W)
Time: 08:49:32
(UTC-04:00)
Language:

H-2A R/B - Orbit

View from above orbital plane
View from above orbital plane
View from above satellite
View from above satellite

Ground track
Ground track

The orbit data is extracted from the following two-line orbital elements,

1 27601U 02056E   17292.15941785  .00000061  00000-0  37795-4 0  9992
2 27601  98.3637 355.5912 0070996 288.0774 102.9538 14.31803247775540
Epoch (UTC): 19 October 2017 03:49:33
Eccentricity: 0.0070996
inclination: 98.3637°
perigee height: 735 km
apogee height: 836 km
right ascension of ascending node: 355.5912°
argument of perigee: 288.0774°
revolutions per day: 14.31803247
mean anomaly at epoch: 102.9538°
orbit number at epoch: 77554

The dashed part of the orbit path shows where the satellite is in the earth's shadow,  

DLR